KM5R Weather Reports


Display with metric or nautical units.
time (UTC)temp
F
wind
direction
speed
MPH
gust
MPH
rain 1hr
in
rain 24hr
in
rain mn
in
humidity
%
barometer
mb
20260509023937 68 76 1.0 1.0 0.00 0.00 0.00 86 1011.3
20260509023435 67 63 0.0 0.0 0.00 0.00 0.00 85 1011.7
20260509022931 67 62 1.0 1.0 0.00 0.00 0.00 85 1011.4
20260509022428 67 69 1.0 1.0 0.00 0.00 0.00 85 1011.2
20260509021926 67 74 0.0 0.0 0.00 0.00 0.00 85 1011.5
20260509021423 68 74 0.0 0.0 0.00 0.00 0.00 85 1011.6
20260509020920 68 74 0.0 0.0 0.00 0.00 0.00 84 1011.0
20260509020418 68 75 0.0 0.0 0.00 0.00 0.00 84 1010.9
20260509015915 68 75 0.0 0.0 0.00 0.00 0.00 84 1010.8
20260509015414 68 75 0.0 1.0 0.00 0.00 0.00 84 1010.8
20260509014910 68 87 1.0 1.0 0.00 0.00 0.00 84 1011.0
20260509014407 69 81 1.0 1.0 0.00 0.00 0.00 84 1010.9
20260509013904 69 103 2.0 2.0 0.00 0.00 0.00 84 1011.0
20260509013401 69 99 3.0 3.0 0.00 0.00 0.00 83 1010.8
20260509012856 69 66 1.0 2.0 0.00 0.00 0.00 83 1010.7
20260509012353 69 97 2.0 2.0 0.00 0.00 0.00 83 1010.9
20260509011850 69 85 4.0 5.0 0.00 0.00 0.00 83 1010.8
20260509011348 70 75 1.0 1.0 0.00 0.00 0.00 82 1010.9
20260509010845 70 67 1.0 1.0 0.00 0.00 0.00 82 1010.8
20260509010343 70 85 3.0 5.0 0.00 0.00 0.00 82 1010.6
20260509005840 70 81 6.0 8.0 0.00 0.00 0.00 81 1010.5
20260509005337 71 53 1.0 1.0 0.00 0.00 0.00 81 1010.9
20260509004838 71 49 1.0 1.0 0.00 0.00 0.00 81 1010.6
20260509004334 71 77 5.0 7.0 0.00 0.00 0.00 81 1010.7
20260509003832 71 79 5.0 6.0 0.00 0.00 0.00 81 1010.8
20260509003330 71 80 4.0 5.0 0.00 0.00 0.00 81 1010.9
20260509002827 71 77 3.0 5.0 0.00 0.00 0.00 81 1010.8
20260509002324 71 77 3.0 5.0 0.00 0.00 0.00 80 1011.0
20260509001822 71 105 3.0 3.0 0.00 0.00 0.00 80 1011.0
20260509001317 71 62 2.0 2.0 0.00 0.00 0.00 80 1011.0
20260509000815 71 94 5.0 6.0 0.00 0.00 0.00 80 1010.9
20260509000313 71 91 7.0 8.0 0.00 0.00 0.00 80 1010.9
20260508235809 71 80 6.0 7.0 0.00 0.00 0.00 80 1010.9
20260508235307 71 81 4.0 6.0 0.00 0.00 0.00 80 1010.8
20260508234803 71 63 7.0 7.0 0.00 0.00 0.00 79 1011.1
20260508234259 71 79 2.0 2.0 0.00 0.00 0.00 79 1011.0
20260508233758 72 111 7.0 8.0 0.00 0.00 0.00 79 1011.0
20260508233257 72 71 6.0 8.0 0.00 0.00 0.00 79 1010.8
20260508232753 72 93 3.0 3.0 0.00 0.00 0.00 79 1010.9
20260508232250 72 99 7.0 8.0 0.00 0.00 0.00 79 1010.9
20260508231748 72 107 5.0 7.0 0.00 0.00 0.00 79 1010.8
20260508231244 72 85 9.0 10.0 0.00 0.00 0.00 79 1010.9
20260508230741 72 79 7.0 10.0 0.00 0.00 0.00 79 1010.9
20260508230237 73 83 3.0 7.0 0.00 0.00 0.00 78 1010.9
20260508225735 73 116 7.0 9.0 0.00 0.00 0.00 78 1010.9
20260508225231 73 87 9.0 10.0 0.00 0.00 0.00 78 1010.8
20260508224729 73 65 5.0 7.0 0.00 0.00 0.00 78 1011.1
20260508224227 73 50 5.0 6.0 0.00 0.00 0.00 78 1010.8
20260508223724 73 73 6.0 8.0 0.00 0.00 0.00 77 1011.0
20260508223221 73 92 8.0 11.0 0.00 0.00 0.00 78 1011.0
20260508222719 73 68 3.0 6.0 0.00 0.00 0.00 77 1010.9
20260508222216 73 62 5.0 6.0 0.00 0.00 0.00 78 1010.9
20260508221712 73 119 7.0 8.0 0.00 0.00 0.00 78 1011.0
20260508221208 72 86 9.0 10.0 0.00 0.00 0.00 78 1011.0
20260508220704 73 82 5.0 8.0 0.00 0.00 0.00 77 1011.3
20260508220201 75 92 4.0 6.0 0.00 0.00 0.00 76 1011.0
20260508215658 74 83 3.0 5.0 0.00 0.00 0.00 76 1011.1
20260508215154 72 88 3.0 3.0 0.00 0.00 0.00 78 1011.1
20260508214651 72 78 5.0 6.0 0.00 0.00 0.00 78 1011.2
20260508214149 72 74 6.0 8.0 0.00 0.00 0.00 78 1011.4
20260508213645 72 83 6.0 8.0 0.00 0.00 0.00 78 1011.4
20260508213141 73 61 5.0 8.0 0.00 0.00 0.00 77 1011.3
20260508212638 73 57 6.0 7.0 0.00 0.00 0.00 77 1011.3
20260508212135 72 56 5.0 7.0 0.00 0.00 0.00 77 1011.6
20260508211635 72 82 3.0 5.0 0.00 0.00 0.00 78 1011.6
20260508211131 72 54 2.0 5.0 0.00 0.00 0.00 77 1011.7
20260508210628 73 70 3.0 3.0 0.00 0.00 0.00 76 1011.9
20260508210126 72 74 6.0 7.0 0.00 0.00 0.00 76 1012.1
20260508205623 73 38 2.0 2.0 0.00 0.00 0.00 76 1012.0
20260508205119 73 51 2.0 3.0 0.00 0.00 0.00 75 1012.2
20260508204615 73 115 2.0 2.0 0.00 0.00 0.00 76 1012.2
20260508204112 71 92 2.0 2.0 0.00 0.00 0.00 77 1012.2
20260508203608 71 75 3.0 5.0 0.00 0.00 0.00 76 1012.3
20260508203104 73 15 3.0 5.0 0.00 0.00 0.00 76 1012.1
20260508202600 71 117 4.0 7.0 0.00 0.00 0.00 77 1012.5
20260508202058 70 105 6.0 7.0 0.00 0.00 0.00 78 1012.5
20260508201554 70 72 7.0 9.0 0.00 0.00 0.00 78 1012.7
20260508201051 70 50 4.0 6.0 0.00 0.00 0.00 78 1013.0
20260508200548 70 70 5.0 6.0 0.00 0.00 0.00 78 1012.7
20260508200043 70 73 7.0 8.0 0.00 0.00 0.00 78 1012.8
20260508195541 70 69 6.0 7.0 0.00 0.00 0.00 78 1012.8
20260508195037 70 85 2.0 5.0 0.00 0.00 0.00 78 1012.9
20260508194534 69 62 6.0 7.0 0.00 0.00 0.00 78 1013.0
20260508194031 69 67 3.0 3.0 0.00 0.00 0.00 78 1012.8
20260508193527 70 37 4.0 8.0 0.00 0.00 0.00 78 1012.8
20260508193024 70 76 6.0 7.0 0.00 0.00 0.00 77 1013.0
20260508192521 69 67 2.0 2.0 0.00 0.00 0.00 78 1013.1
20260508192018 69 66 7.0 9.0 0.00 0.00 0.00 78 1013.0
20260508191515 69 45 3.0 3.0 0.00 0.00 0.00 78 1013.3
20260508191011 68 72 5.0 6.0 0.00 0.00 0.00 79 1013.3
20260508190509 67 65 3.0 7.0 0.00 0.00 0.00 80 1013.5
20260508190005 67 74 1.0 2.0 0.00 0.00 0.00 80 1013.6
20260508185503 67 77 3.0 5.0 0.00 0.00 0.00 80 1013.6
20260508185000 67 57 3.0 3.0 0.00 0.00 0.00 81 1013.8
20260508184457 66 56 1.0 1.0 0.00 0.00 0.00 81 1013.8
20260508183954 66 70 3.0 5.0 0.00 0.00 0.00 81 1013.6
20260508183450 66 67 7.0 8.0 0.00 0.00 0.00 81 1013.5
20260508182945 66 50 2.0 2.0 0.00 0.00 0.00 81 1013.8
20260508182443 66 50 2.0 2.0 0.00 0.00 0.00 80 1014.0
20260508181944 66 48 1.0 2.0 0.00 0.00 0.00 81 1013.8
20260508181440 66 71 5.0 6.0 0.00 0.00 0.00 81 1014.2
20260508180938 66 54 2.0 2.0 0.00 0.00 0.00 81 1014.2
20260508180435 66 13 3.0 3.0 0.00 0.00 0.00 81 1014.3
20260508175931 65 53 3.0 3.0 0.00 0.00 0.00 81 1014.3
20260508175427 65 86 1.0 2.0 0.00 0.00 0.00 81 1014.4
20260508174926 65 35 3.0 5.0 0.00 0.00 0.00 81 1014.5
20260508174423 65 80 3.0 5.0 0.00 0.00 0.00 81 1014.8
20260508173919 65 88 6.0 7.0 0.00 0.00 0.00 81 1014.5
20260508173417 65 59 4.0 6.0 0.00 0.00 0.00 81 1014.6
20260508172912 65 76 5.0 6.0 0.00 0.00 0.00 81 1015.1
20260508172410 65 85 4.0 5.0 0.00 0.00 0.00 81 1015.0
20260508171906 65 68 1.0 2.0 0.00 0.00 0.00 81 1015.0
20260508171402 65 66 6.0 8.0 0.00 0.00 0.00 81 1014.9
20260508170859 65 36 3.0 3.0 0.00 0.00 0.00 80 1014.8
20260508170357 65 55 1.0 2.0 0.00 0.00 0.00 80 1014.9
20260508165853 65 53 0.0 1.0 0.00 0.00 0.00 81 1015.0
20260508165351 65 58 3.0 3.0 0.00 0.00 0.00 81 1015.1
20260508164846 65 46 5.0 7.0 0.00 0.00 0.00 80 1015.3
20260508164344 65 43 1.0 2.0 0.00 0.00 0.00 80 1015.6
20260508163841 65 43 2.0 2.0 0.00 0.00 0.00 81 1015.5
20260508163339 64 92 1.0 1.0 0.00 0.00 0.00 81 1015.5
20260508162834 64 110 3.0 3.0 0.00 0.00 0.00 81 1015.6
20260508162331 64 70 2.0 2.0 0.00 0.00 0.00 81 1015.5
20260508161829 64 90 2.0 2.0 0.00 0.00 0.00 81 1015.5
20260508161326 64 65 2.0 2.0 0.00 0.00 0.00 81 1015.7
20260508160823 64 79 2.0 2.0 0.00 0.00 0.00 81 1015.6
20260508160322 64 64 1.0 1.0 0.00 0.00 0.00 81 1015.5
20260508155818 64 87 2.0 2.0 0.00 0.00 0.00 80 1015.6
20260508155315 64 74 2.0 2.0 0.00 0.00 0.00 80 1015.6
20260508154812 64 78 2.0 2.0 0.00 0.00 0.00 80 1015.4
20260508154310 64 59 1.0 1.0 0.00 0.00 0.00 80 1015.4
20260508153806 65 52 0.0 0.0 0.00 0.00 0.00 80 1015.3
20260508153304 64 65 1.0 1.0 0.00 0.00 0.00 80 1015.3
20260508152759 64 63 1.0 2.0 0.00 0.00 0.00 80 1015.4
20260508152255 64 31 2.0 3.0 0.00 0.00 0.00 81 1015.4
20260508151752 63 19 0.0 1.0 0.00 0.00 0.00 82 1015.1
20260508151249 63 26 4.0 5.0 0.00 0.00 0.00 82 1014.9
20260508150745 62 343 2.0 2.0 0.00 0.00 0.00 82 1015.0
20260508150242 62 349 3.0 5.0 0.00 0.00 0.00 82 1015.3
20260508145738 62 28 1.0 1.0 0.00 0.00 0.00 83 1015.5
20260508145234 61 28 0.0 0.0 0.00 0.00 0.00 83 1015.7
20260508144731 61 22 1.0 1.0 0.00 0.00 0.00 83 1015.8
20260508144230 61 31 1.0 1.0 0.00 0.00 0.00 83 1015.7
20260508143726 61 32 1.0 2.0 0.00 0.00 0.00 83 1015.9
20260508143224 60 15 1.0 1.0 0.00 0.00 0.00 84 1015.9
20260508142720 61 38 1.0 1.0 0.00 0.00 0.00 84 1015.7
20260508142217 61 42 0.0 0.0 0.00 0.00 0.00 84 1015.7
20260508141713 60 42 0.0 1.0 0.00 0.00 0.00 84 1015.9
20260508141211 60 93 0.0 0.0 0.00 0.00 0.00 84 1015.8
20260508140708 60 94 0.0 0.0 0.00 0.00 0.00 84 1015.9
20260508140205 60 96 0.0 0.0 0.00 0.00 0.00 85 1016.1
20260508135701 60 104 2.0 2.0 0.00 0.00 0.00 85 1016.2
20260508135201 60 88 1.0 1.0 0.00 0.00 0.00 85 1015.9
20260508134658 60 58 0.0 0.0 0.00 0.00 0.00 86 1015.7
20260508134155 59 59 0.0 0.0 0.00 0.00 0.00 86 1016.1
20260508133652 59 54 1.0 1.0 0.00 0.00 0.00 86 1015.9
20260508133149 59 91 2.0 2.0 0.00 0.00 0.00 86 1016.3
20260508132647 59 85 1.0 2.0 0.00 0.00 0.00 86 1016.2
20260508132144 59 91 3.0 3.0 0.00 0.00 0.00 86 1016.4
20260508131640 59 76 0.0 0.0 0.00 0.00 0.00 87 1016.4
20260508131136 59 72 1.0 1.0 0.00 0.00 0.00 87 1016.2
20260508130633 59 82 0.0 1.0 0.00 0.00 0.00 87 1016.5
20260508130131 59 140 1.0 1.0 0.00 0.00 0.00 87 1016.5
20260508125631 58 140 2.0 2.0 0.00 0.00 0.00 87 1016.4
20260508125128 58 133 0.0 0.0 0.00 0.00 0.00 87 1016.3
20260508124626 59 32 0.0 0.0 0.00 0.00 0.00 87 1016.3
20260508124123 58 16 0.0 0.0 0.00 0.00 0.00 87 1016.1
20260508123621 58 53 0.0 0.0 0.00 0.00 0.00 87 1016.3
20260508123119 58 44 0.0 0.0 0.00 0.00 0.00 87 1016.3
20260508122615 58 44 0.0 0.0 0.00 0.00 0.00 87 1016.1
20260508122112 57 44 0.0 0.0 0.00 0.00 0.00 87 1016.0
20260508121610 57 40 0.0 0.0 0.00 0.00 0.00 87 1015.9
20260508121108 58 327 1.0 1.0 0.00 0.00 0.00 87 1016.3
20260508120605 57 2 0.0 0.0 0.00 0.00 0.00 87 1016.1
20260508120103 57 79 0.0 0.0 0.00 0.00 0.00 87 1016.1
20260508115600 57 80 0.0 0.0 0.00 0.00 0.00 87 1016.2
20260508115057 57 91 0.0 0.0 0.00 0.00 0.00 87 1016.0
20260508114554 57 71 0.0 0.0 0.00 0.00 0.00 88 1016.1
20260508114050 57 84 1.0 1.0 0.00 0.00 0.00 88 1016.1
20260508113548 57 84 1.0 1.0 0.00 0.00 0.00 88 1016.1
20260508113046 57 107 2.0 2.0 0.00 0.00 0.00 88 1016.2
20260508112542 57 89 3.0 3.0 0.00 0.00 0.00 88 1016.0
20260508112039 57 61 0.0 0.0 0.00 0.00 0.00 88 1015.8
20260508111536 57 41 1.0 1.0 0.00 0.00 0.00 88 1015.9
20260508111032 57 68 0.0 0.0 0.00 0.00 0.00 88 1016.2
20260508110531 57 65 0.0 0.0 0.00 0.00 0.00 88 1016.1
20260508110026 57 93 1.0 1.0 0.00 0.00 0.00 88 1016.2
20260508105521 57 104 0.0 0.0 0.00 0.00 0.00 88 1016.3
20260508105019 57 84 0.0 0.0 0.00 0.00 0.00 88 1016.1
20260508104517 57 83 0.0 0.0 0.00 0.00 0.00 88 1016.1
20260508104013 57 73 0.0 0.0 0.00 0.00 0.00 88 1016.2
20260508103510 57 74 2.0 2.0 0.00 0.00 0.00 88 1016.1
20260508103007 57 66 1.0 1.0 0.00 0.00 0.00 88 1016.4
20260508102505 56 72 2.0 3.0 0.00 0.00 0.00 89 1016.4
20260508102002 56 81 0.0 1.0 0.00 0.00 0.00 89 1016.8
20260508101459 56 109 2.0 2.0 0.00 0.00 0.00 89 1016.4
20260508100956 56 88 1.0 1.0 0.00 0.00 0.00 89 1016.5
20260508100455 56 44 1.0 2.0 0.00 0.00 0.00 90 1016.2
20260508095951 56 53 5.0 6.0 0.00 0.00 0.00 90 1016.3
20260508095449 55 101 3.0 3.0 0.00 0.00 0.00 90 1016.2
20260508094945 55 119 4.0 5.0 0.00 0.00 0.00 90 1016.0
20260508094442 54 79 2.0 3.0 0.00 0.00 0.00 90 1015.9
20260508093939 54 77 2.0 3.0 0.00 0.00 0.00 90 1015.9
20260508093436 54 107 2.0 2.0 0.00 0.00 0.00 90 1016.2
20260508092934 54 101 1.0 1.0 0.00 0.00 0.00 90 1016.4
20260508092432 54 113 2.0 2.0 0.00 0.00 0.00 90 1016.6
20260508091930 54 114 2.0 3.0 0.00 0.00 0.00 90 1016.7
20260508091426 54 37 0.0 1.0 0.00 0.00 0.00 90 1016.5
20260508090923 54 84 2.0 2.0 0.00 0.00 0.00 90 1016.5
20260508090422 54 82 1.0 1.0 0.00 0.00 0.00 90 1016.8
20260508085917 55 30 0.0 0.0 0.00 0.00 0.00 90 1017.0
20260508085415 55 25 0.0 0.0 0.00 0.00 0.00 90 1017.0
20260508084911 55 18 0.0 0.0 0.00 0.00 0.00 90 1017.2
20260508084408 54 289 0.0 0.0 0.00 0.00 0.00 90 1017.1
20260508083906 54 350 0.0 0.0 0.00 0.00 0.00 90 1017.1
20260508083403 54 275 1.0 1.0 0.00 0.00 0.00 90 1017.1
20260508082902 53 302 1.0 1.0 0.00 0.00 0.00 90 1016.9
20260508082400 53 302 2.0 2.0 0.00 0.00 0.00 90 1017.0
20260508081858 53 281 3.0 3.0 0.00 0.00 0.00 90 1016.8
20260508081354 53 308 2.0 2.0 0.00 0.00 0.00 90 1016.9
20260508080851 53 327 1.0 2.0 0.00 0.00 0.00 90 1016.8
20260508080349 53 350 1.0 1.0 0.00 0.00 0.00 90 1017.0
20260508075845 53 280 2.0 2.0 0.00 0.00 0.00 90 1016.9
20260508075342 53 278 3.0 3.0 0.00 0.00 0.00 90 1017.0
20260508074840 53 307 1.0 2.0 0.00 0.00 0.00 90 1016.7
20260508074337 53 297 2.0 2.0 0.00 0.00 0.00 90 1016.9
20260508073834 53 336 2.0 2.0 0.00 0.00 0.00 90 1016.7
20260508073332 53 342 2.0 2.0 0.00 0.00 0.00 90 1016.6
20260508072828 52 343 2.0 2.0 0.00 0.00 0.00 90 1016.7
20260508072325 53 16 2.0 2.0 0.00 0.00 0.00 89 1016.7
20260508071822 53 96 1.0 1.0 0.00 0.00 0.00 90 1016.7
20260508071321 53 27 0.0 0.0 0.00 0.00 0.00 89 1016.6
20260508070817 53 54 0.0 0.0 0.00 0.00 0.00 89 1016.7
20260508070316 53 77 0.0 0.0 0.00 0.00 0.00 89 1016.7
20260508065813 53 100 0.0 0.0 0.00 0.00 0.00 89 1017.0
20260508065311 53 81 0.0 0.0 0.00 0.00 0.00 89 1017.0
20260508064809 53 92 0.0 0.0 0.00 0.00 0.00 89 1016.7
20260508064306 53 72 0.0 0.0 0.00 0.00 0.00 89 1016.9
20260508063803 53 73 0.0 0.0 0.00 0.00 0.00 89 1016.9
20260508063302 54 80 0.0 0.0 0.00 0.00 0.00 89 1017.0
20260508062758 54 145 3.0 3.0 0.00 0.00 0.00 89 1016.9
20260508062256 53 5 0.0 0.0 0.00 0.00 0.00 89 1016.8
20260508061752 53 5 0.0 0.0 0.00 0.00 0.00 89 1017.0
20260508061249 53 5 0.0 0.0 0.00 0.00 0.00 89 1017.1
20260508060746 53 1 0.0 0.0 0.00 0.00 0.00 89 1017.1
20260508060244 53 359 0.0 0.0 0.00 0.00 0.00 89 1017.1
20260508055739 53 359 0.0 0.0 0.00 0.06 0.06 89 1017.2
20260508055237 54 359 0.0 0.0 0.00 0.06 0.06 89 1017.0
20260508054733 54 359 0.0 0.0 0.00 0.06 0.06 89 1017.3
20260508054231 54 353 0.0 0.0 0.00 0.06 0.06 89 1017.3
20260508053728 54 353 0.0 0.0 0.00 0.06 0.06 89 1017.1
20260508053225 54 353 0.0 0.0 0.00 0.06 0.06 89 1017.1
20260508052722 54 353 0.0 0.0 0.00 0.06 0.06 89 1017.2
20260508052219 54 353 0.0 0.0 0.00 0.06 0.06 89 1017.3
20260508051715 54 353 0.0 0.0 0.00 0.06 0.06 89 1017.4
20260508051211 54 346 0.0 0.0 0.00 0.06 0.06 89 1017.3
20260508050708 54 314 1.0 2.0 0.00 0.06 0.06 89 1017.6
20260508050205 54 10 0.0 0.0 0.00 0.06 0.06 89 1017.3
20260508045700 54 23 0.0 0.0 0.00 0.06 0.06 89 1017.7
20260508045159 54 23 0.0 0.0 0.00 0.06 0.06 89 1017.5
20260508044655 55 23 0.0 0.0 0.00 0.06 0.06 89 1017.9
20260508044152 54 344 0.0 0.0 0.00 0.06 0.06 89 1017.7
20260508043648 55 16 0.0 0.0 0.00 0.06 0.06 89 1017.8
20260508043146 54 15 0.0 0.0 0.00 0.06 0.06 89 1017.9
20260508042642 54 15 0.0 0.0 0.00 0.06 0.06 89 1017.9
20260508042140 54 14 0.0 0.0 0.00 0.06 0.06 89 1017.9
20260508041636 54 4 0.0 0.0 0.00 0.06 0.06 89 1018.2
20260508041133 54 288 0.0 0.0 0.00 0.06 0.06 89 1017.9
20260508040629 55 258 0.0 0.0 0.00 0.06 0.06 89 1018.1
20260508040127 55 261 0.0 0.0 0.00 0.06 0.06 89 1017.8
20260508035624 55 260 0.0 0.0 0.00 0.06 0.06 89 1017.7
20260508035121 55 191 0.0 0.0 0.00 0.06 0.06 89 1017.9
20260508034618 55 191 0.0 0.0 0.00 0.06 0.06 89 1017.9
20260508034115 55 191 0.0 0.0 0.00 0.06 0.06 89 1018.2
20260508033612 55 219 2.0 2.0 0.00 0.06 0.06 89 1017.9
20260508033111 55 237 2.0 2.0 0.00 0.06 0.06 89 1017.8
20260508032607 55 212 2.0 2.0 0.00 0.06 0.06 89 1018.1
20260508032105 55 208 4.0 5.0 0.00 0.06 0.06 89 1017.9
20260508031601 55 337 0.0 0.0 0.00 0.06 0.06 89 1017.8
20260508031057 55 80 0.0 0.0 0.00 0.06 0.06 88 1017.6
20260508030554 56 78 0.0 0.0 0.00 0.06 0.06 88 1017.4
20260508030052 56 20 0.0 0.0 0.00 0.06 0.06 88 1017.6
20260508025548 56 351 0.0 0.0 0.00 0.06 0.06 88 1017.1
20260508025045 56 349 0.0 0.0 0.00 0.06 0.06 88 1017.3
20260508024541 56 3 0.0 0.0 0.00 0.06 0.06 88 1017.1